Location: ?
(35.4996°N, 139.3166°E)
Time: 14:15:54
(UTC+00:00)

Meteor 1-23 Rocket - Pass Details

Date: 18 April 2024
Orbit: 841 x 882 km, 81.3° (Epoch: 18 May)

Event Time Altitude Azimuth Distance (km) Brightness Sun altitude
Rises 19:33:08 0° 192° (SSW) 3,435 7.1 -7.1°
Reaches altitude 10° 19:35:35 10° 194° (SSW) 2,496 6.3 -6.6°
Maximum altitude 19:41:14 73° 279° (W) 895 4.2 -5.5°
Drops below altitude 10° 19:46:52 10° 4° (N) 2,484 6.9 -4.4°
Sets 19:49:18 0° 7° (N) 3,418 7.7 -3.9°
